This demonstration page uses our WeatherBlox Daily Observations layout. Learn more.

Hourly Observations for August 12, 2016

Temp ( °F °C ) Dew Point ( °F °C ) Humidity (%) Winds ( mph kmh ) Pressure ( in mb ) Visibility ( mi km ) Precip ( " mm )
12:34 am 00:34 Partly Cloudy 74 23.3 72 22.2 94 94 SSE 10 17 29.8 1009 10 16.0934 0 0
12:54 am 00:54 Mostly Clear 75 23.9 72 22.2 90 90 ESE 3 6 29.8 1009 10 16.0934 0 0
1:25 am 01:25 Mostly Cloudy 74 23.3 72 22.2 94 94 SE 9 15 29.77 1008 10 16.0934 0 0
1:54 am 01:54 Mostly Cloudy 74 23.3 72 22.2 94 94 SSE 9 15 29.8 1009 10 16.0934 0 0
2:21 am 02:21 Partly Cloudy 73 22.8 71 21.7 94 94 SSE 12 19 29.77 1008 10 16.0934 0 0
2:54 am 02:54 Mostly Cloudy 73 22.8 71 21.7 94 94 S 8 13 29.8 1009 10 16.0934 0 0
3:01 am 03:01 Mostly Cloudy 73 23 72 22 94 94 SSE 9 15 29.8 1009 10 16.0934 0 0
3:54 am 03:54 Cloudy 72 22.2 71 21.7 97 97 Calm 29.83 1010 10 16.0934 0 0
4:08 am 04:08 Cloudy with Heavy Rain 72 22 70 21 94 94 N 23 37 29.85 1011 1.75 2.816345 0 0
4:15 am 04:15 Cloudy with Heavy Rain 72 22 70 21 94 94 N 20 31 29.85 1011 1.75 2.816345 0 0
4:22 am 04:22 Cloudy with Heavy Rain 70 21 70 21 100 100 N 20 31 29.85 1011 2.5 4.02335 0 0
4:30 am 04:30 Cloudy with Heavy Rain 70 21 70 21 100 100 N 16 26 29.85 1011 3 4.82802 0 0
4:39 am 04:39 Cloudy with Rain 70 21.1 69 20.6 97 97 N 12 19 29.85 1011 3 4.82802 0.22 5.588
4:54 am 04:54 Cloudy with Light Rain 70 21.1 68 20 93 93 N 17 28 29.85 1011 6 9.65604 0.25 6.35
5:14 am 05:14 Cloudy with Light Rain 70 21 68 20 94 94 NNE 9 15 29.88 1012 7 11.26538 0 0
5:38 am 05:38 Mostly Cloudy with Light Rain 70 21 68 20 94 94 NE 9 15 29.85 1011 10 16.0934 0 0
5:54 am 05:54 Partly Cloudy with Light Rain 70 21.1 68 20 93 93 NE 10 17 29.82 1010 10 16.0934 0.06 1.524
6:10 am 06:10 Mostly Clear 70 21.1 68 20 93 93 NNE 6 9 29.85 1011 10 16.0934 0 0.0254
6:54 am 06:54 Mostly Sunny 69 20.6 68 20 96 96 NNE 3 6 29.82 1010 10 16.0934 0 0.0254
7:40 am 07:40 Mostly Cloudy 70 21 68 20 94 94 NNW 8 13 29.85 1011 10 16.0934 0 0
7:54 am 07:54 Cloudy 70 21.1 68 20 93 93 NNW 8 13 29.85 1011 10 16.0934 0 0
8:11 am 08:11 Cloudy 71 21.7 69 20.6 94 94 NNW 10 17 29.88 1012 10 16.0934 0 0
8:54 am 08:54 Cloudy 71 21.7 69 20.6 94 94 N 10 17 29.9 1013 10 16.0934 0 0
9:54 am 09:54 Partly Cloudy 73 22.8 67 19.4 81 81 NNW 14 22 29.89 1012 10 16.0934 0 0
10:54 am 10:54 Partly Cloudy 76 24.4 67 19.4 74 74 NNW 14 22 29.91 1013 10 16.0934 0 0
11:01 am 11:01 Mostly Cloudy 75 23.9 66 18.9 74 74 NNW 15 24 29.88 1012 10 16.0934 0 0
11:54 am 11:54 Cloudy 77 25 67 19.4 71 71 NNW 15 24 29.91 1013 10 16.0934 0 0
12:54 pm 12:54 Cloudy 78 25.6 67 19.4 69 69 NNW 10 17 29.91 1013 10 16.0934 0 0
1:42 pm 13:42 Mostly Cloudy 81 27.2 68 20 65 65 N 14 22 29.88 1012 10 16.0934 0 0
1:54 pm 13:54 Mostly Cloudy 79 26.1 66 18.9 65 65 N 16 26 29.9 1013 10 16.0934 0 0
2:54 pm 14:54 Partly Cloudy 82 27.8 67 19.4 60 60 N 13 20 29.91 1013 10 16.0934 0 0
3:54 pm 15:54 Mostly Sunny 83 28.3 66 18.9 57 57 N 15 24 29.91 1013 10 16.0934 0 0
4:54 pm 16:54 Sunny 83 28.3 65 18.3 55 55 NNW 14 22 29.9 1012 10 16.0934 0 0
5:54 pm 17:54 Sunny 84 28.9 65 18.3 53 53 N 15 24 29.89 1012 10 16.0934 0 0
6:54 pm 18:54 Sunny 82 27.8 65 18.3 56 56 N 13 20 29.89 1012 10 16.0934 0 0
7:54 pm 19:54 Sunny 78 25.6 67 19.4 69 69 N 8 13 29.91 1013 10 16.0934 0 0
8:54 pm 20:54 Clear 76 24.4 66 18.9 72 72 N 9 15 29.92 1013 10 16.0934 0 0
9:54 pm 21:54 Clear 74 23.3 64 17.8 71 71 NNW 8 13 29.96 1015 10 16.0934 0 0
10:54 pm 22:54 Clear 72 22.2 63 17.2 73 73 NNW 9 15 29.98 1015 10 16.0934 0 0
11:54 pm 23:54 Clear 67 19.4 62 16.7 84 84 N 5 7 29.97 1015 10 16.0934 0 0

Powered by AerisWeather